Vertical_Velocity
-1 -0 -1 1 3 2 1 2 2 3 4 3 4 1 -0 -1 -2 -1 -3 -2 -1 -2 -2 -3 -2 -2 -0 0 -1 -2 -1 1 1 1 -1 -2 -2 -2 -1 -0 0 -1 -0 1
-2 -1 1 2 1 -1 -3 -2 -2 4 4 -1 -1 -0 1 -1 -0 -3 -5 -4 -3 -2 -0 0 0 -2 -3 -1 1 2 2 2 -0 -0 -1 -1 1 1 1 1 -0 1 1 -2
-2 -1 -0 -1 -3 -2 -1 0 -3 -2 -4 -4 -5 -4 -3 -1 1 1 4 5 6 5 4 2 1 -1 -6 -8 -7 -6 -6 -3 -1 -0 2 2 2 1 1 0 -0 1 1 -1
-0 4 -3 0 0 0 -2 -2 -0 0 1 1 1 1 -0 -1 -1 -1 2 1 -2 -4 -4 -6 -5 -1 0 -0 1 0 1 1 0 -0 0 0 2 1 0 -3 -0 1 1 -2
-1 -3 -5 0 1 -0 -0 -1 -0 -1 2 4 4 2 2 1 2 1 -2 -3 -4 -5 -4 -2 -1 -1 0 2 2 1 1 -0 -0 -1 2 2 -2 -2 2 -2 0 -1 -1 -0
-1 -2 -3 1 2 2 2 -5 1 1 -0 0 -0 -0 -0 0 -1 -1 -1 -2 -2 -0 -1 -1 0 1 2 2 4 4 2 2 2 1 0 0 -1 0 0 -2 -2 -2 -0 1
-0 -2 -6 -1 -1 1 -0 -7 -4 -1 2 2 2 3 2 3 0 -2 -3 -3 -1 -2 -2 -0 -3 -2 -4 -5 -5 -4 -1 -3 -1 3 -3 0 -1 1 -3 -3 -3 -0 -4 3
1 -1 -8 -1 -0 -1 -2 -3 -2 0 -0 -1 -3 -4 -6 -5 -5 -4 -2 -2 -3 -2 -3 -3 -2 -2 -2 -3 -3 -3 -5 -3 -3 -0 0 -3 -7 -2 -0 -1 -1 1 -3 -0
-2 -1 3 1 -4 -0 -1 2 1 -3 -5 -6 -3 -2 -1 -2 0 1 -2 -2 -3 -3 -2 -1 -3 -4 -2 -1 -4 -6 -5 -2 -2 -3 -2 3 -3 -2 -1 8 -1 1 1 -2
5 -4 7 5 2 2 2 3 2 2 1 1 1 1 2 2 2 -0 -2 -4 -1 -0 0 1 1 4 3 -2 -5 -5 -7 -2 1 2 -1 2 3 1 -2 2 -0 -4 3 -6
-2 3 6 3 4 1 1 0 1 1 -2 -0 -1 2 -0 -5 -7 -4 -3 -3 -3 -5 -5 -5 -6 -6 -3 -4 -1 -6 -5 -4 -2 0 -2 -7 4 -2 1 -3 5 1 -1 -5
-7 -0 -2 -1 -1 -1 -4 1 2 1 2 -1 -0 -2 -1 1 0 1 2 2 0 1 -1 -1 -3 -6 0 2 1 -7 -11 -5 -5 -8 -1 2 4 -7 13 0 5 6 1 3
-2 -2 -3 -1 0 -1 -0 -1 -3 -5 -2 -4 -5 -4 -2 2 5 4 3 1 1 -3 -3 -1 1 -5 6 3 2 3 -4 -7 -1 6 -3 -2 0 -1 -14 4 10 5 9 6
-2 -1 -3 -1 -4 -2 -1 1 3 1 0 4 4 4 3 -0 -2 -3 -4 -1 0 -5 -7 -1 -3 -8 1 3 -0 -5 -1 6 -1 -0 -1 -5 -0 3 5 -6 -3 -5 18 4
-1 -1 -1 -0 -1 -1 -2 -2 -0 0 2 1 -1 -2 2 -3 -3 -5 -6 -5 -1 -6 -4 -3 -3 -12 2 1 -3 -2 -1 -4 -4 -6 3 3 -3 -1 4 1 -4 -1 -3 7
-2 -2 -1 -1 -0 -1 -1 -2 -0 3 1 2 -0 3 -0 -3 -5 -5 -4 0 -1 -12 -6 5 -3 3 5 2 -1 -4 -6 -3 2 -3 -2 1 3 1 3 2 -1 -2 -1 1
-2 3 -1 -3 -3 -3 -1 0 -1 0 1 1 -2 -3 -8 1 -3 -3 -4 8 3 -3 3 4 -3 1 1 -2 -5 -4 -5 -4 1 -1 2 1 -0 0 1 -1 -1 -1 -0 4
-3 1 -1 -3 -1 -2 1 1 1 2 1 -2 -2 -3 -1 2 0 -6 -1 1 -1 -5 11 1 3 0 -2 -2 2 1 -4 -1 1 -2 -2 1 2 1 1 -3 -1 -3 1 3
2 -1 -1 0 1 1 -1 2 4 0 4 1 -0 -5 -2 4 -1 -2 -4 -6 3 -12 3 6 3 -2 -4 3 3 -2 -1 -1 -0 -1 -1 -1 -2 -1 -3 -4 -3 -1 -2 -2
-4 -2 -1 -0 2 3 -4 5 -7 -9 1 -3 -4 -0 -6 3 -0 -5 -4 -13 10 -7 -7 -2 -1 -0 1 1 4 -0 1 1 -1 -0 1 -1 -1 -1 -1 1 -2 -1 -1 -1
0 2 0 -3 -3 2 -1 0 -3 -4 -3 3 -2 2 -7 -5 1 -2 -6 -20 20 -1 -3 -2 -3 -3 -2 -1 0 1 1 0 0 -0 -1 -1 -1 1 -0 2 1 1 -0 -2
-2 -2 -0 -1 -2 -8 4 -2 -0 -1 -3 -3 4 1 -4 -4 -4 -3 11 -15 2 3 -3 -3 -1 1 -3 1 -1 0 2 -0 -1 1 0 1 -0 -1 0 0 0 1 0 0
2 -3 -2 -1 -6 -9 -8 4 -3 -3 -3 2 -2 -1 -0 -1 4 -14 -9 20 -6 2 0 -0 -1 1 1 -0 -0 1 1 0 -0 0 -0 -1 -1 -1 -1 -0 -1 -0 1 1
-5 0 -5 -2 -2 -5 -10 9 -1 3 0 -0 2 5 -1 -8 7 1 -0 2 2 -1 0 0 -1 1 4 3 1 1 0 -1 -1 -0 -1 0 0 1 1 1 0 2 1 0
-6 -6 -1 -5 -4 1 -2 -2 -2 -2 -5 -1 1 3 2 2 -9 2 -4 -1 1 -1 -2 3 2 3 2 2 2 2 1 0 -1 -1 0 0 0 -0 0 1 2 0 -0 -0
-4 0 -1 1 -3 -2 -0 -3 -7 -1 -2 -4 1 -1 0 1 1 1 2 -1 -1 1 -1 -1 0 1 1 1 1 1 1 1 1 2 0 0 1 2 1 1 0 1 1 0
3 -2 -1 2 6 -1 -2 -2 -5 -2 -0 -0 -4 1 -1 0 1 -1 -1 -1 -0 -0 -0 0 1 2 1 0 0 1 2 1 0 -1 -0 -0 1 -0 0 0 0 1 1 0
Height
3098 3097 3097 3096 3096 3096 3096 3096 3097 3097 3098 3101 3101 3102 3102 3103 3102 3103 3103 3103 3103 3102 3101 3100 3099 3098 3096 3094 3090 3087 3083 3081 3078 3075 3072 3069 3067 3065 3062 3059 3056 3053 3050 3047
3096 3095 3094 3093 3093 3092 3091 3092 3093 3096 3097 3097 3098 3098 3099 3099 3099 3098 3098 3098 3097 3096 3095 3093 3091 3088 3087 3085 3082 3079 3076 3073 3070 3066 3064 3061 3058 3055 3052 3049 3046 3042 3039 3035
3092 3092 3091 3091 3089 3089 3088 3088 3090 3091 3093 3093 3094 3094 3094 3094 3094 3094 3094 3093 3091 3090 3089 3087 3084 3082 3080 3078 3074 3070 3067 3064 3060 3057 3054 3051 3047 3044 3041 3038 3035 3032 3028 3024
3089 3089 3090 3087 3087 3087 3087 3088 3088 3089 3090 3091 3091 3091 3091 3090 3091 3091 3090 3088 3086 3083 3081 3078 3074 3071 3069 3066 3063 3058 3056 3052 3050 3046 3043 3040 3036 3032 3029 3026 3023 3020 3017 3013
3089 3088 3087 3084 3083 3085 3085 3087 3086 3087 3087 3087 3087 3087 3086 3086 3085 3083 3081 3078 3076 3073 3071 3069 3066 3062 3059 3056 3052 3049 3044 3041 3038 3035 3031 3027 3023 3020 3017 3013 3010 3006 3003 3000
3088 3088 3086 3082 3081 3081 3082 3083 3083 3083 3084 3084 3083 3082 3081 3079 3077 3074 3071 3069 3067 3065 3062 3059 3056 3052 3049 3046 3042 3038 3033 3030 3026 3022 3017 3013 3010 3007 3004 3000 2997 2994 2991 2988
3083 3084 3081 3079 3079 3079 3082 3084 3081 3082 3082 3081 3080 3079 3076 3073 3070 3067 3064 3062 3058 3054 3050 3046 3043 3039 3035 3032 3028 3024 3020 3016 3013 3009 3004 3001 2997 2994 2991 2988 2985 2982 2979 2978
3080 3081 3077 3074 3075 3079 3078 3076 3076 3076 3076 3075 3073 3070 3067 3064 3061 3059 3056 3052 3049 3044 3039 3036 3032 3027 3023 3020 3016 3012 3009 3004 3000 2996 2992 2988 2985 2983 2980 2976 2973 2970 2967 2965
3078 3074 3072 3071 3071 3071 3071 3070 3069 3068 3066 3064 3062 3060 3058 3055 3052 3049 3045 3041 3037 3033 3030 3027 3023 3019 3014 3010 3006 3002 2999 2995 2990 2986 2982 2978 2973 2971 2968 2964 2960 2958 2956 2953
3070 3069 3068 3067 3066 3065 3064 3062 3060 3058 3056 3054 3053 3050 3048 3045 3041 3037 3034 3031 3028 3025 3022 3019 3015 3011 3006 3000 2996 2992 2987 2983 2979 2974 2971 2968 2964 2961 2958 2954 2950 2948 2944 2941
3063 3065 3063 3062 3059 3057 3056 3054 3052 3049 3047 3044 3042 3040 3037 3034 3031 3028 3026 3023 3020 3016 3012 3009 3005 3001 2997 2991 2985 2980 2975 2971 2966 2962 2958 2956 2953 2950 2948 2947 2944 2937 2936 2932
3056 3057 3054 3053 3050 3048 3047 3045 3044 3042 3039 3036 3032 3030 3027 3024 3022 3019 3017 3015 3011 3008 3003 2999 2994 2990 2986 2980 2973 2966 2961 2958 2953 2949 2945 2944 2940 2937 2938 2935 2933 2929 2926 2921
3047 3047 3045 3044 3042 3041 3039 3037 3034 3032 3029 3027 3025 3023 3020 3018 3016 3013 3011 3007 3002 2997 2993 2989 2984 2978 2975 2968 2962 2955 2948 2945 2941 2936 2933 2931 2928 2926 2923 2924 2921 2919 2915 2912
3038 3036 3035 3034 3032 3032 3030 3027 3024 3023 3021 3019 3017 3016 3014 3012 3010 3007 3004 2999 2994 2988 2984 2979 2973 2966 2963 2955 2947 2943 2939 2934 2930 2926 2922 2920 2917 2914 2912 2909 2905 2906 2906 2900
3029 3028 3027 3025 3024 3022 3021 3020 3018 3016 3014 3012 3011 3009 3008 3004 3001 2996 2992 2988 2982 2975 2971 2965 2959 2954 2950 2943 2937 2931 2927 2924 2920 2916 2913 2910 2907 2904 2901 2898 2895 2893 2891 2892
3022 3021 3018 3017 3015 3013 3011 3011 3011 3010 3008 3006 3005 3003 2999 2994 2990 2984 2979 2974 2968 2961 2957 2952 2945 2942 2936 2930 2926 2922 2918 2915 2911 2906 2902 2900 2897 2894 2891 2889 2886 2884 2882 2880
3013 3012 3010 3009 3008 3006 3004 3003 3003 3003 3001 3000 2996 2993 2988 2983 2977 2972 2966 2961 2954 2948 2942 2938 2933 2929 2925 2921 2917 2913 2909 2906 2902 2898 2893 2890 2887 2885 2883 2880 2878 2875 2873 2870
3007 3006 3004 3003 3002 3000 3000 2999 2998 2995 2993 2989 2985 2980 2975 2969 2962 2957 2952 2945 2938 2934 2931 2927 2922 2918 2913 2911 2907 2902 2899 2895 2892 2888 2884 2881 2878 2875 2873 2871 2869 2866 2863 2860
3002 3001 3000 2999 2997 2995 2994 2992 2990 2986 2983 2979 2973 2968 2962 2956 2950 2944 2940 2935 2929 2924 2922 2916 2911 2906 2902 2900 2896 2891 2887 2884 2880 2877 2874 2871 2868 2865 2863 2860 2858 2855 2852 2848
2998 2997 2996 2994 2992 2989 2986 2984 2980 2976 2972 2966 2960 2953 2947 2943 2939 2933 2928 2923 2918 2913 2907 2902 2898 2894 2890 2887 2884 2879 2875 2871 2868 2865 2862 2859 2857 2854 2852 2850 2847 2844 2841 2838
2992 2991 2989 2987 2984 2981 2978 2974 2968 2963 2958 2952 2945 2940 2935 2930 2926 2921 2914 2908 2906 2900 2894 2889 2885 2880 2876 2873 2869 2866 2863 2859 2856 2853 2850 2847 2845 2843 2841 2839 2836 2833 2830 2827
2984 2982 2979 2976 2972 2969 2966 2962 2956 2950 2944 2939 2933 2927 2921 2916 2911 2907 2902 2895 2890 2885 2880 2875 2872 2869 2864 2860 2856 2854 2852 2849 2845 2842 2839 2836 2834 2832 2830 2827 2825 2822 2820 2817
2975 2972 2969 2966 2961 2957 2954 2949 2943 2937 2932 2926 2920 2915 2909 2903 2898 2891 2884 2882 2876 2871 2866 2861 2858 2856 2853 2849 2846 2844 2841 2838 2835 2832 2829 2827 2824 2822 2819 2817 2814 2812 2810 2807
2967 2963 2960 2956 2951 2946 2942 2937 2931 2925 2920 2914 2909 2903 2896 2889 2883 2879 2872 2866 2861 2856 2852 2848 2844 2842 2840 2837 2835 2833 2831 2829 2826 2823 2820 2818 2815 2812 2809 2807 2804 2802 2799 2797
2957 2955 2950 2945 2940 2935 2929 2923 2917 2911 2906 2900 2894 2888 2882 2876 2869 2863 2858 2853 2849 2844 2840 2837 2833 2830 2827 2825 2824 2822 2820 2818 2816 2813 2811 2808 2805 2802 2799 2796 2793 2791 2788 2786
2950 2945 2940 2935 2930 2924 2917 2911 2904 2898 2891 2885 2880 2874 2868 2863 2857 2851 2846 2841 2837 2832 2828 2826 2823 2820 2818 2815 2813 2812 2810 2809 2807 2804 2801 2798 2795 2792 2789 2787 2784 2781 2779 2777
2941 2936 2930 2925 2921 2913 2906 2899 2892 2886 2880 2873 2867 2862 2856 2851 2846 2840 2835 2831 2826 2822 2818 2815 2813 2811 2810 2808 2806 2804 2802 2801 2798 2796 2793 2790 2787 2784 2781 2778 2775 2773 2770 2768